This is the latest recevied weather packets stored in our database for station/object KF4UQS-14. If no packets are shown the sender has not sent any weather packets the latest 10 day(s).
| Time | Temp. | Humidity | Pressure | Rain* | Wind** | Luminosity | Snow |
|---|---|---|---|---|---|---|---|
| 1777678166 | 13.89° C | 72% | 1013.4 hPa | 0 mm | - | 22 W/m² | - |
| 1777677864 | 13.89° C | 72% | 1013.5 hPa | 0 mm | - | 30 W/m² | - |
| 1777677561 | 13.89° C | 72% | 1013.5 hPa | 0 mm | - | 31 W/m² | - |
| 1777677260 | 13.33° C | 72% | 1013.5 hPa | 0 mm | - | 29 W/m² | - |
| 1777676957 | 13.33° C | 71% | 1013.5 hPa | 0 mm | - | 25 W/m² | - |
| 1777676656 | 13.89° C | 70% | 1013.7 hPa | 0 mm | - | 25 W/m² | - |
| 1777676353 | 13.89° C | 69% | 1013.8 hPa | 0 mm | - | 41 W/m² | - |
| 1777676051 | 13.89° C | 68% | 1013.6 hPa | 0 mm | - | 66 W/m² | - |
| 1777675746 | 13.89° C | 68% | 1013.4 hPa | 0 mm | - | 74 W/m² | - |
| 1777675444 | 13.89° C | 68% | 1013.6 hPa | 0 mm | - | 81 W/m² | - |
| 1777675140 | 13.89° C | 67% | 1013.5 hPa | 0 mm | - | 115 W/m² | - |
| 1777674836 | 13.89° C | 67% | 1013.4 hPa | 0 mm | - | 118 W/m² | - |
| 1777674533 | 13.89° C | 67% | 1013.7 hPa | 0 mm | - | 125 W/m² | - |
| 1777674231 | 13.89° C | 66% | 1013.7 hPa | 0 mm | - | 111 W/m² | - |
| 1777673927 | 14.44° C | 65% | 1013.9 hPa | 0 mm | - | 114 W/m² | - |
| 1777673624 | 14.44° C | 64% | 1014.1 hPa | 0 mm | - | 122 W/m² | - |
| 1777673322 | 14.44° C | 62% | 1013.7 hPa | 0 mm | - | 161 W/m² | - |
| 1777673019 | 14.44° C | 61% | 1013.9 hPa | 0 mm | - | 115 W/m² | - |
| 1777672715 | 15° C | 58% | 1013.9 hPa | 0 mm | - | 139 W/m² | - |
| 1777672411 | 14.44° C | 57% | 1013.8 hPa | 0 mm | - | 235 W/m² | - |
| 1777672107 | 14.44° C | 61% | 1013.8 hPa | 0 mm | - | 134 W/m² | - |
| 1777671803 | 15° C | 58% | 1013.7 hPa | 0 mm | - | 129 W/m² | - |
| 1777671499 | 15° C | 58% | 1013.8 hPa | 0 mm | - | 152 W/m² | - |
| 1777671195 | 15° C | 55% | 1013.6 hPa | 0 mm | - | 172 W/m² | - |
| 1777670891 | 15° C | 54% | 1013.8 hPa | 0 mm | - | 196 W/m² | - |
* Rain latest hour (hover to see other rain measurements)
** Current wind speed in m/s (hover to see current wind gust speed)